Location: Alma
(38.7220°N, 88.9090°W)
Time: 21:06:23
(UTC-06:00)

Vanguard 2 Rocket - Pass Details

Date: 19 November 2019
Orbit: 554 x 3326 km, 32.9° (Epoch: 11 December)

Event Time Altitude Azimuth Distance (km) Brightness Sun altitude
Rises 07:20:48 0° 265° (W) 4,237 9.8 5.8°
Reaches altitude 10° 07:24:15 10° 249° (WSW) 3,663 9.7 6.4°
Maximum altitude 07:30:56 20° 206° (SSW) 3,616 10.1 7.5°
Drops below altitude 10° 07:40:11 10° 166° (SSE) 5,252 11.6 9.0°
Sets 07:46:46 0° 153° (SSE) 6,737 12.6 10.1°
